Oakes, ND

7:29 PM CST on November 19, 2019 (GMT -0600)
Oakes

Weather History for K2D5 - September, 2019

Change the Weather History Date:

Sunday, September 29, 2019

  Actual Average (WUND) Record (WUND)
Temperature  
Mean Temperature 52 °F -  
Max Temperature 57 °F - - (-1)
Min Temperature 46 °F - - (-1)
Degree Days  
Heating Degree Days 14    
Growing Degree Days 2 (Base 50)    
Moisture  
Dew Point 49 °F    
Average Humidity 96    
Maximum Humidity 100    
Minimum Humidity 71    
Precipitation  
Precipitation 0.00 in - - ()
Sea Level Pressure  
Sea Level Pressure 29.92 in    
Wind  
Wind Speed 18 mph (East)    
Max Wind Speed 26 mph    
Max Gust Speed 34 mph    
Visibility 5 miles    
Events Thunderstorm    
Averages and records for this station are not official NWS values.
T = Trace of Precipitation, MM = Missing Value Source: NWS Daily Summary

Daily Weather History Graph

Daily Weather History Graph

Search for Another Location

Airport or City:

Astronomy

Sep. 29, 2019 Rise Set
Actual Time 7:27 AM CDT 7:16 PM CDT
Civil Twilight 6:58 AM CDT 7:46 PM CDT
Nautical Twilight 6:23 AM CDT 8:21 PM CDT
Astronomical Twilight 5:47 AM CDT 8:56 PM CDT
Moon 8:20 AM CDT (9/29) 8:15 PM CDT (9/29)
Length of Visible Light 12h 48m
Length of Day
11h 48m
New Moon, 1% of the Moon is Illuminated
Sep 29
New Moon
Oct 5
First Quarter
Oct 13
Full
Oct 21
Last Quarter
Oct 27
New

Hourly Weather History & Observations

Time (CDT) Temp. Windchill Dew Point Humidity Pressure Visibility Wind Dir Wind Speed Gust Speed Precip Events Conditions
12:15 AM 50.0 °F - 41.0 °F 71% 30.15 in 10.0 mi East 16.1 mph 21.9 mph N/A   Overcast
12:35 AM 50.0 °F - 41.0 °F 71% 30.15 in 10.0 mi East 15.0 mph 25.3 mph N/A   Mostly Cloudy
12:55 AM 50.0 °F - 41.0 °F 71% 30.16 in 10.0 mi East 16.1 mph 24.2 mph N/A   Overcast
1:15 AM 50.0 °F - 41.0 °F 71% 30.16 in 10.0 mi East 13.8 mph 21.9 mph N/A   Overcast
1:35 AM 50.0 °F - 42.8 °F 76% 30.14 in 10.0 mi ENE 16.1 mph 21.9 mph N/A   Overcast
1:55 AM 50.0 °F - 42.8 °F 76% 30.13 in 10.0 mi ENE 17.3 mph - N/A   Overcast
2:15 AM 48.2 °F - 42.8 °F 82% 30.13 in 10.0 mi ENE 17.3 mph 23.0 mph N/A   Overcast
2:35 AM 48.2 °F - 42.8 °F 82% 30.11 in 10.0 mi East 19.6 mph 28.8 mph N/A   Overcast
2:55 AM 48.2 °F - 42.8 °F 82% 30.10 in 10.0 mi ENE 16.1 mph 25.3 mph N/A   Overcast
3:15 AM 48.2 °F - 42.8 °F 82% 30.08 in 10.0 mi ENE 18.4 mph - N/A   Overcast
3:35 AM 48.2 °F - 42.8 °F 82% 30.09 in 10.0 mi ENE 15.0 mph 21.9 mph N/A   Overcast
3:55 AM 48.2 °F - 42.8 °F 82% 30.08 in 10.0 mi ENE 13.8 mph 23.0 mph N/A   Overcast
4:15 AM 48.2 °F - 42.8 °F 82% 30.07 in 8.0 mi East 16.1 mph 26.5 mph N/A   Overcast
4:35 AM 46.4 °F 39.8 °F 44.6 °F 93% 30.07 in 6.0 mi East 16.1 mph 25.3 mph N/A   Overcast
4:55 AM 46.4 °F 39.2 °F 46.4 °F 100% 30.07 in 3.0 mi East 18.4 mph 25.3 mph N/A   Overcast
5:15 AM 46.4 °F 39.5 °F 46.4 °F 100% 30.06 in 1.0 mi East 17.3 mph 25.3 mph N/A   Overcast
5:35 AM 46.4 °F 40.1 °F 46.4 °F 100% 30.06 in 1.2 mi East 15.0 mph 24.2 mph N/A   Overcast
5:55 AM 46.4 °F 39.5 °F 46.4 °F 100% 30.05 in 1.8 mi East 17.3 mph 24.2 mph N/A   Overcast
6:15 AM 46.4 °F 38.5 °F 46.4 °F 100% 30.04 in 2.0 mi East 21.9 mph - N/A   Overcast
6:35 AM 46.4 °F 38.5 °F 46.4 °F 100% 30.03 in 2.5 mi East 21.9 mph 28.8 mph N/A   Overcast
6:55 AM 46.4 °F 39.0 °F 46.4 °F 100% 30.03 in 1.0 mi East 19.6 mph 26.5 mph N/A   Overcast
7:15 AM 46.4 °F 38.3 °F 46.4 °F 100% 30.02 in 2.5 mi East 23.0 mph 29.9 mph N/A   Overcast
7:35 AM 46.4 °F 39.2 °F 46.4 °F 100% 30.02 in 1.8 mi East 18.4 mph 29.9 mph N/A   Overcast
7:55 AM 46.4 °F 38.1 °F 46.4 °F 100% 30.01 in 1.5 mi East 24.2 mph - N/A   Overcast
8:15 AM 46.4 °F 38.5 °F 46.4 °F 100% 30.00 in 1.2 mi East 21.9 mph 31.1 mph N/A   Overcast
8:35 AM 46.4 °F 37.9 °F 46.4 °F 100% 29.99 in 2.0 mi East 25.3 mph 32.2 mph N/A   Overcast
8:55 AM 46.4 °F 38.1 °F 46.4 °F 100% 29.98 in 2.5 mi East 24.2 mph 32.2 mph N/A   Overcast
9:15 AM 46.4 °F 37.9 °F 46.4 °F 100% 29.98 in 4.0 mi East 25.3 mph 33.4 mph N/A   Overcast
9:35 AM 46.4 °F 37.9 °F 46.4 °F 100% 29.97 in 4.0 mi ESE 25.3 mph 34.5 mph N/A   Overcast
9:55 AM 46.4 °F 37.9 °F 46.4 °F 100% 29.96 in 6.0 mi East 25.3 mph 33.4 mph N/A   Overcast
10:15 AM 48.2 °F - 48.2 °F 100% 29.96 in 8.0 mi ESE 24.2 mph 31.1 mph N/A   Overcast
10:35 AM 48.2 °F - 48.2 °F 100% 29.95 in 8.0 mi East 25.3 mph 32.2 mph N/A   Overcast
10:55 AM 48.2 °F - 48.2 °F 100% 29.93 in 9.0 mi East 26.5 mph 33.4 mph N/A   Overcast
11:15 AM 48.2 °F - 48.2 °F 100% 29.94 in 2.0 mi ESE 25.3 mph - N/A   Overcast
11:35 AM 48.2 °F - 48.2 °F 100% 29.93 in 1.5 mi ESE 23.0 mph 29.9 mph N/A   Overcast
11:55 AM 48.2 °F - 48.2 °F 100% 29.94 in 2.5 mi East 19.6 mph 27.6 mph N/A   Overcast
12:15 PM 48.2 °F - 48.2 °F 100% 29.92 in 9.0 mi East 21.9 mph - N/A   Overcast
12:35 PM 50.0 °F - 50.0 °F 100% 29.92 in 7.0 mi ESE 19.6 mph 27.6 mph N/A   Overcast
12:55 PM 50.0 °F - 50.0 °F 100% 29.91 in 6.0 mi East 24.2 mph 31.1 mph N/A   Overcast
1:15 PM 50.0 °F - 50.0 °F 100% 29.90 in 7.0 mi East 24.2 mph 31.1 mph N/A   Overcast
1:35 PM 50.0 °F - 50.0 °F 100% 29.89 in 9.0 mi ESE 25.3 mph 32.2 mph N/A   Overcast
1:55 PM 50.0 °F - 50.0 °F 100% 29.88 in 7.0 mi ESE 20.7 mph 27.6 mph N/A   Overcast
2:15 PM 50.0 °F - 50.0 °F 100% 29.87 in 2.0 mi East 18.4 mph 31.1 mph N/A   Overcast
2:35 PM 51.8 °F - 51.8 °F 100% 29.85 in 1.2 mi East 17.3 mph 25.3 mph N/A   Overcast
2:55 PM 51.8 °F - 51.8 °F 100% 29.84 in 1.0 mi East 18.4 mph 25.3 mph N/A   Overcast
3:15 PM 51.8 °F - 51.8 °F 100% 29.84 in 3.0 mi East 19.6 mph - N/A   Overcast
3:35 PM 51.8 °F - 51.8 °F 100% 29.83 in 2.5 mi East 21.9 mph 28.8 mph N/A   Overcast
3:55 PM 51.8 °F - 51.8 °F 100% 29.81 in 0.5 mi East 19.6 mph 26.5 mph N/A   Overcast
4:15 PM 51.8 °F - 51.8 °F 100% 29.80 in 1.2 mi East 21.9 mph - N/A   Overcast
4:35 PM 51.8 °F - 51.8 °F 100% 29.80 in 1.5 mi East 19.6 mph - N/A   Overcast
4:55 PM 51.8 °F - 51.8 °F 100% 29.81 in 4.0 mi ESE 17.3 mph 24.2 mph N/A   Overcast
5:15 PM 53.6 °F - 53.6 °F 100% 29.80 in 5.0 mi ESE 19.6 mph 26.5 mph N/A   Overcast
5:35 PM 53.6 °F - 53.6 °F 100% 29.80 in 5.0 mi ESE 18.4 mph 25.3 mph N/A   Overcast
5:55 PM 53.6 °F - 53.6 °F 100% 29.79 in 3.0 mi ESE 17.3 mph 24.2 mph N/A   Overcast
6:15 PM 53.6 °F - 53.6 °F 100% 29.78 in 7.0 mi ESE 16.1 mph - N/A   Overcast
6:35 PM 53.6 °F - 53.6 °F 100% 29.79 in 9.0 mi ESE 16.1 mph - N/A   Overcast
6:55 PM 53.6 °F - 53.6 °F 100% 29.78 in 2.0 mi ESE 16.1 mph - N/A   Overcast
7:15 PM 55.4 °F - 55.4 °F 100% 29.78 in 1.2 mi ESE 13.8 mph - N/A   Overcast
7:35 PM 55.4 °F - 55.4 °F 100% 29.78 in 2.5 mi ESE 13.8 mph - N/A   Overcast
7:55 PM 55.4 °F - 55.4 °F 100% 29.77 in 9.0 mi East 15.0 mph - N/A   Overcast
8:15 PM 55.4 °F - 55.4 °F 100% 29.78 in 7.0 mi East 15.0 mph - N/A   Overcast
8:35 PM 55.4 °F - 55.4 °F 100% 29.77 in 5.0 mi ESE 15.0 mph - N/A   Overcast
8:55 PM 55.4 °F - 55.4 °F 100% 29.77 in 9.0 mi East 12.7 mph - N/A   Overcast
9:15 PM - - - N/A% 29.77 in 8.0 mi East 13.8 mph - N/A   Overcast
9:35 PM 57.2 °F - 57.2 °F 100% 29.77 in 4.0 mi East 12.7 mph - N/A   Overcast
9:55 PM 57.2 °F - 57.2 °F 100% 29.75 in 6.0 mi East 12.7 mph - N/A   Overcast
10:15 PM 57.2 °F - 57.2 °F 100% 29.74 in 2.0 mi East 11.5 mph - N/A   Overcast
10:35 PM 57.2 °F - 57.2 °F 100% 29.73 in 2.0 mi ESE 11.5 mph - N/A   Overcast
10:55 PM 57.2 °F - 57.2 °F 100% 29.74 in 1.5 mi ESE 11.5 mph - N/A   Overcast
11:15 PM 57.2 °F - 57.2 °F 100% 29.72 in 1.0 mi East 9.2 mph - N/A Thunderstorm Thunderstorm
11:35 PM 57.2 °F - 57.2 °F 100% 29.72 in 3.0 mi East 10.4 mph - N/A Thunderstorm Overcast
11:55 PM 57.2 °F - 57.2 °F 100% 29.70 in 7.0 mi East 11.5 mph - N/A   Overcast